GW1938 Weather Reports


time (UTC)temp
F
wind
direction
speed
knots
gust
knots
rain 1hr
in
rain 24hr
in
rain mn
in
humidity
%
barometer
mb
20260502202834 64 1 6.1 9.6 0.00 0.02 0.00 88 1020.5
20260502202332 64 2 5.2 7.8 0.00 0.02 0.00 88 1020.4
20260502201831 64 1 4.3 7.0 0.00 0.02 0.00 88 1020.4
20260502200826 64 8 5.2 7.8 0.00 0.02 0.00 87 1020.4
20260502195822 65 10 6.1 10.4 0.00 0.02 0.00 86 1020.3
20260502195321 65 10 5.2 7.8 0.00 0.02 0.00 86 1020.3
20260502193813 64 7 6.1 9.6 0.00 0.02 0.00 88 1020.2
20260502193311 64 6 6.1 10.4 0.00 0.02 0.00 88 1020.1
20260502192810 64 8 6.1 8.7 0.00 0.02 0.00 88 1020.2
20260502192306 64 7 5.2 10.4 0.00 0.02 0.00 88 1020.1
20260502191805 64 8 6.1 9.6 0.00 0.02 0.00 89 1020.1
20260502191304 64 7 6.1 9.6 0.00 0.02 0.00 89 1020.1
20260502190801 64 7 6.1 9.6 0.00 0.02 0.00 88 1020.1
20260502190300 65 5 6.1 8.7 0.00 0.02 0.00 88 1020.2
20260502185256 65 5 6.1 9.6 0.00 0.02 0.00 86 1020.1
20260502184754 66 11 6.1 9.6 0.00 0.02 0.00 86 1020.1
20260502183244 65 17 6.1 7.8 0.00 0.02 0.00 86 1020.0
20260502182742 65 18 5.2 8.7 0.00 0.02 0.00 87 1020.0
20260502182240 65 15 5.2 7.0 0.00 0.02 0.00 87 1020.1
20260502181739 65 18 5.2 7.8 0.00 0.02 0.00 86 1020.1
20260502181238 65 24 4.3 7.0 0.00 0.02 0.00 86 1020.1
20260502180736 65 24 4.3 7.8 0.00 0.02 0.00 86 1020.1
20260502170212 64 10 3.5 6.1 0.00 0.02 0.00 90 1020.3
20260502164202 65 355 5.2 8.7 0.00 0.02 0.00 88 1020.3
20260502163700 65 360 5.2 8.7 0.00 0.02 0.00 89 1020.3
20260502162656 65 359 6.1 10.4 0.00 0.02 0.00 88 1020.4
20260502162155 65 358 6.1 9.6 0.00 0.02 0.00 87 1020.5
20260502161653 65 358 6.1 10.4 0.00 0.02 0.00 87 1020.5
20260502160649 65 359 6.1 10.4 0.00 0.02 0.00 86 1020.6
20260502152124 67 13 7.0 12.2 0.00 0.02 0.00 84 1021.0
20260502151621 67 17 6.1 9.6 0.00 0.02 0.00 83 1021.0
20260502151120 67 19 7.8 11.3 0.00 0.02 0.00 83 1020.9
20260502130526 67 5 5.2 7.0 0.00 0.06 0.02 83 1021.7
20260502123510 67 9 5.2 8.7 0.00 0.07 0.02 83 1021.9
20260502123008 67 5 5.2 7.8 0.00 0.07 0.02 82 1021.9
20260502122507 68 3 6.1 9.6 0.00 0.07 0.02 82 1022.0
20260502122006 68 358 6.1 10.4 0.00 0.08 0.02 81 1022.1
20260502121504 68 2 6.1 10.4 0.00 0.09 0.02 81 1022.1
20260502121004 68 360 7.0 11.3 0.00 0.09 0.02 81 1022.0
20260502120502 68 11 7.0 11.3 0.00 0.09 0.02 80 1022.0
20260502115459 69 15 7.0 10.4 0.00 0.09 0.02 78 1022.1
20260502114956 69 27 7.0 11.3 0.00 0.09 0.02 78 1022.1
20260502114455 69 15 6.1 10.4 0.00 0.09 0.02 78 1022.1
20260502113954 69 14 7.0 8.7 0.00 0.09 0.02 78 1022.2
20260502113453 69 6 7.8 10.4 0.00 0.09 0.02 78 1022.3
20260502111945 69 36 8.7 13.9 0.00 0.09 0.02 78 1022.1
20260502111442 69 41 8.7 13.9 0.00 0.09 0.02 77 1022.2
20260502110941 69 49 10.4 15.6 0.00 0.09 0.02 76 1022.1
20260502110438 69 46 10.4 15.6 0.00 0.09 0.02 77 1022.0
20260502105937 69 41 9.6 16.5 0.00 0.09 0.02 76 1022.1
20260502104932 69 37 10.4 14.8 0.00 0.09 0.02 80 1022.3
20260502104428 69 38 11.3 16.5 0.00 0.09 0.02 81 1022.2
20260502103927 69 41 13.0 20.0 0.00 0.09 0.02 78 1022.0
20260502103426 69 38 13.0 20.9 0.00 0.09 0.02 78 1021.8
20260502100911 71 39 11.3 18.2 0.00 0.09 0.02 80 1021.6
20260502100409 71 42 11.3 20.0 0.00 0.09 0.02 79 1021.5
20260502091349 71 52 13.9 20.9 0.00 0.09 0.02 76 1021.6
20260502090344 71 52 14.8 21.7 0.00 0.09 0.02 77 1021.6
20260502071257 71 41 10.4 17.4 0.00 0.09 0.02 75 1020.8
20260502070755 71 41 9.6 16.5 0.00 0.09 0.02 76 1020.8
20260502070254 71 46 11.3 17.4 0.00 0.09 0.02 75 1020.8
20260502065753 71 45 11.3 19.1 0.00 0.09 0.02 75 1020.8
20260502065251 71 46 11.3 17.4 0.00 0.09 0.02 75 1020.9
20260502064750 71 49 13.9 20.9 0.00 0.09 0.02 74 1020.8
20260502064249 71 43 11.3 16.5 0.00 0.09 0.02 72 1020.8
20260502063748 71 50 13.9 19.1 0.00 0.09 0.02 71 1020.7
20260502063246 71 47 12.2 18.2 0.00 0.09 0.02 71 1020.7
20260502062241 71 51 13.0 20.0 0.00 0.09 0.02 72 1020.6
20260502061740 71 47 10.4 18.2 0.00 0.09 0.02 74 1020.7
20260502061238 71 56 15.6 20.9 0.00 0.09 0.02 75 1020.6
20260502060736 72 49 12.2 20.0 0.00 0.09 0.02 75 1020.7
20260502060233 72 50 13.0 17.4 0.00 0.09 0.02 74 1020.7
20260502055732 72 53 14.8 20.0 0.00 0.09 0.02 72 1020.8
20260502055230 72 49 11.3 19.1 0.00 0.09 0.02 74 1020.8
20260502054728 72 53 13.9 19.1 0.00 0.09 0.02 72 1020.7
20260502053723 72 56 16.5 20.9 0.00 0.09 0.02 70 1020.7
20260502053222 73 62 17.4 25.2 0.00 0.09 0.02 69 1020.7
20260502052720 73 57 17.4 22.6 0.00 0.09 0.02 69 1020.8
20260502052219 73 56 17.4 20.9 0.00 0.09 0.02 69 1020.7
20260502051718 73 56 14.8 21.7 0.00 0.09 0.02 71 1020.8
20260502050712 73 56 15.6 20.9 0.00 0.09 0.02 70 1020.9
20260502045707 74 59 17.4 22.6 0.00 0.09 0.02 69 1020.9
20260502044702 74 56 15.6 20.9 0.00 0.09 0.02 69 1020.8
20260502044159 74 59 16.5 20.9 0.00 0.09 0.02 70 1020.7
20260502042651 75 56 15.6 21.7 0.00 0.09 0.02 69 1020.7
20260502042150 75 56 14.8 20.0 0.00 0.09 0.02 69 1020.7
20260502041649 75 54 13.9 20.0 0.00 0.09 0.02 70 1020.7
20260502041148 75 52 13.0 19.1 0.00 0.09 0.02 71 1020.8
20260502035501 75 50 13.0 19.1 0.00 0.09 0.02 68 1021.0
20260502034452 75 57 14.8 20.0 0.00 0.09 0.02 71 1021.0
20260502033951 75 53 13.9 19.1 0.00 0.09 0.02 70 1021.0
20260502033450 75 55 14.8 21.7 0.00 0.09 0.02 71 1021.0
20260502032947 75 55 13.9 19.1 0.00 0.09 0.02 71 1021.0
20260502032446 74 52 13.0 18.2 0.00 0.09 0.02 72 1021.1
20260502031945 73 50 10.4 16.5 0.00 0.09 0.02 75 1021.2
20260502031441 74 54 10.4 15.6 0.00 0.09 0.02 74 1021.2
20260502030939 73 57 11.3 13.9 0.00 0.09 0.02 78 1021.3
20260502030437 72 58 13.0 16.5 0.00 0.09 0.02 78 1021.5
20260502025432 73 57 12.2 20.0 0.00 0.09 0.02 76 1021.7
20260502024930 75 43 7.0 13.0 0.00 0.09 0.02 72 1021.8
20260502023421 74 29 7.0 10.4 0.00 0.09 0.02 71 1022.0
20260502022919 75 33 7.0 10.4 0.00 0.09 0.02 72 1022.1
20260502021914 74 33 7.0 11.3 0.00 0.09 0.02 72 1022.0
20260502021413 75 34 7.0 10.4 0.00 0.09 0.02 71 1022.1
20260502020912 74 36 7.0 9.6 0.00 0.09 0.02 72 1022.2
20260502020409 74 36 5.2 7.8 0.00 0.09 0.02 72 1022.3
20260502015908 74 27 6.1 10.4 0.00 0.09 0.02 74 1022.4
20260502015407 74 25 6.1 8.7 0.00 0.09 0.02 73 1022.5
20260502014906 74 19 7.0 9.6 0.00 0.09 0.02 73 1022.5
20260502014405 74 23 7.0 9.6 0.00 0.09 0.02 75 1022.7
20260502013903 74 27 7.0 12.2 0.00 0.09 0.02 73 1022.9
20260502013400 75 11 6.1 9.6 0.00 0.09 0.02 73 1023.0
20260502012356 74 6 6.1 9.6 0.00 0.09 0.02 73 1023.3
20260502011855 75 7 8.7 12.2 0.00 0.09 0.02 71 1023.3
20260502011353 76 6 7.8 11.3 0.00 0.09 0.02 72 1023.4
20260502010852 76 1 7.0 13.0 0.00 0.09 0.02 72 1023.5
20260502010350 77 356 7.0 9.6 0.00 0.09 0.02 70 1023.5
20260502005849 77 356 7.0 8.7 0.00 0.09 0.02 72 1023.7
20260502005346 74 2 7.8 12.2 0.00 0.09 0.02 78 1023.8
20260502004844 73 6 7.0 12.2 0.00 0.09 0.02 77 1023.9
20260502004343 72 13 6.1 8.7 0.00 0.09 0.02 82 1023.8
20260502003840 72 8 6.1 10.4 0.00 0.09 0.02 80 1023.8
20260502003339 71 15 5.2 7.8 0.00 0.09 0.02 83 1023.9
20260502002334 70 13 6.1 8.7 0.00 0.09 0.02 85 1024.0
20260502001833 70 12 7.0 11.3 0.00 0.09 0.02 87 1024.1
20260502000828 69 16 7.0 10.4 0.00 0.09 0.02 86 1024.1
20260501235823 69 17 7.0 8.7 0.00 0.09 0.02 88 1024.1
20260501235320 69 19 6.1 9.6 0.00 0.09 0.02 88 1024.0
20260501234819 69 28 6.1 9.6 0.00 0.09 0.02 87 1024.0
20260501233815 69 30 5.2 7.8 0.00 0.09 0.02 87 1024.0
20260501233313 69 29 5.2 7.8 0.00 0.09 0.02 87 1024.1
20260501232810 69 39 5.2 7.0 0.00 0.09 0.02 89 1024.1
20260501232309 68 41 5.2 8.7 0.00 0.09 0.02 91 1024.1
20260501231806 68 36 5.2 8.7 0.00 0.09 0.02 92 1024.1
20260501231305 67 32 5.2 8.7 0.00 0.09 0.02 93 1024.1
20260501230802 67 20 6.1 12.2 0.00 0.09 0.02 93 1024.1
20260501230300 67 16 7.0 10.4 0.00 0.09 0.02 92 1024.1
20260501225758 67 13 7.8 10.4 0.00 0.09 0.02 92 1024.1
20260501225257 68 13 9.6 13.0 0.00 0.09 0.02 91 1024.2
20260501224755 67 27 6.1 13.0 0.00 0.09 0.02 90 1024.2
20260501224252 67 28 4.3 8.7 0.00 0.09 0.02 89 1024.2
20260501223751 68 40 4.3 7.0 0.00 0.09 0.02 90 1024.2
20260501223249 67 30 3.5 7.0 0.01 0.09 0.02 90 1024.2
20260501222243 67 44 2.6 4.3 0.02 0.09 0.02 91 1024.2
20260501221742 67 39 1.7 3.5 0.02 0.09 0.02 93 1024.1
20260501221241 66 26 2.6 4.3 0.02 0.09 0.02 93 1024.2
20260501220740 66 12 4.3 6.1 0.02 0.09 0.02 93 1024.2
20260501220238 67 1 4.3 7.0 0.02 0.09 0.02 94 1024.1
20260501215736 66 356 3.5 5.2 0.02 0.09 0.02 95 1024.0
20260501215235 66 346 3.5 5.2 0.02 0.09 0.02 95 1023.9
20260501214734 66 352 2.6 4.3 0.02 0.09 0.02 95 1023.9
20260501214233 66 349 3.5 5.2 0.02 0.09 0.02 96 1023.8
20260501213731 66 358 2.6 3.5 0.02 0.09 0.02 97 1023.8
20260501212726 65 345 2.6 4.3 0.00 0.08 0.01 96 1023.9
20260501212222 65 333 2.6 4.3 0.00 0.08 0.01 96 1023.8
20260501211721 65 360 1.7 3.5 0.00 0.08 0.01 96 1023.8
20260501211218 65 341 1.7 3.5 0.00 0.08 0.01 96 1023.7
20260501210716 65 347 4.3 7.0 0.00 0.08 0.01 96 1023.7
20260501210213 65 355 3.5 5.2 0.00 0.08 0.01 95 1023.7
20260501205710 66 349 2.6 4.3 0.00 0.08 0.01 95 1023.6
20260501205209 66 17 2.6 4.3 0.00 0.08 0.01 95 1023.7
20260501204204 66 23 4.3 7.0 0.00 0.08 0.01 95 1023.6
20260501203701 66 32 3.5 5.2 0.00 0.08 0.01 95 1023.4
20260501203200 66 36 4.3 6.1 0.00 0.08 0.01 95 1023.4